x

West Bermuda - 240 Nm West Of Bermuda (41048) Wave Buoy

3:50pm - Tue 26th Sep 2017 All times are UTC.

  • Sig Wave height 16.1ft
  • Swell Direction
  • Peak Period 11s
  • Average Period 8s
  • Wind
    29mph, 38mph gusts
  • Sea Temp 80°f
  • Air Temp 81°f
  • Sea Pressure 1010.3mb

More Historic Weather Station data

Upgrade to MSW Pro to gain access to the past 30 days of data for over 8000 Wavebouys and Weather Stations around the globe.

Join

Comparision Forecast

View Surf forecast
   
Tue 09/26 3:50pm 16ft 11s 8s 29 38 mph 1010.3mb 80f 81f
3:40pm  -   -   -  29 38 mph 1010.1mb 80f 81f
3:30pm  -   -   -  31 38 mph 1010.1mb 80f 81f
3:20pm  -   -   -  31 38 mph 1010.2mb 80f 81f
3:10pm  -   -   -  29 38 mph 1010.4mb 80f 81f
3:00pm  -   -   -  31 43 mph 1010.4mb 80f 81f
2:50pm 17.5ft 11s 8s 31 38 mph 1010.6mb 80f 81f
2:40pm  -   -   -  31 40 mph 1010.6mb 80f 81f
2:30pm  -   -   -  31 43 mph 1010.6mb 80f 80f
2:20pm  -   -   -  34 43 mph 1010.8mb 80f 80f
2:10pm  -   -   -  31 43 mph 1010.5mb 80f 81f
2:00pm  -   -   -  34 40 mph 1010.4mb 80f 82f
1:50pm 19.5ft 11s 8s 31 38 mph 1010.2mb 80f 81f
1:40pm  -   -   -  31 40 mph 1009.8mb 80f 82f
1:30pm  -   -   -  31 40 mph 1009.7mb 80f 82f
1:20pm  -   -   -  31 40 mph 1009.4mb 80f -
1:10pm  -   -   -  31 43 mph 1009.3mb - 81f
1:00pm  -   -   -  31 45 mph 1009.6mb - 82f
12:50pm 18ft 12s 8s 34 40 mph 1009.6mb 80f 82f
12:40pm  -   -   -  31 43 mph 1009.6mb 80f 82f
12:30pm  -   -   -  34 40 mph 1009.4mb 80f 82f
12:20pm  -   -   -  31 40 mph 1009.1mb - 82f
12:10pm  -   -   -  34 43 mph 1009.3mb - 82f
12:00pm  -   -   -  34 43 mph 1009.1mb 80f 82f
11:50am 18ft 11s 8s 34 45 mph 1009mb 80f 82f
11:40am 18ft  -  8s 34 43 mph 1008.6mb 80f 82f
11:30am  -   -   -  34 43 mph 1008.9mb 80f 81f
11:20am  -   -   -  34 40 mph 1008.8mb 80f 81f
11:10am  -   -   -  31 40 mph 1009mb 80f 82f
11:00am  -   -   -  31 40 mph 1009.1mb 80f 82f
10:50am 18ft 11s 8s 34 43 mph 1009.1mb 80f 82f
10:40am 18ft  -  8s 31 40 mph 1009mb 80f 82f
10:30am  -   -   -  31 40 mph 1008.8mb - 82f
10:20am  -   -   -  29 40 mph 1008.8mb - 81f
10:10am  -   -   -  29 38 mph 1008.5mb 80f 82f
10:00am  -   -   -  31 40 mph 1008.7mb 80f 82f
9:50am 19ft 11s 8s 31 43 mph 1008.6mb 80f 81f
9:40am  -   -   -  29 38 mph 1008.2mb 80f 81f
9:30am  -   -   -  31 38 mph 1008.1mb 80f 82f
9:20am  -   -   -  29 38 mph 1008.1mb 80f 82f
9:10am  -   -   -  31 40 mph 1008mb 80f 81f
9:00am  -   -   -  29 38 mph 1007.9mb 80f 82f
8:50am 16.5ft 11s 8s 29 38 mph 1007.8mb 80f 82f
8:40am  -   -   -  31 40 mph 1007.7mb 80f 82f
8:30am  -   -   -  31 40 mph 1007.7mb 80f 82f
8:20am  -   -   -  34 43 mph 1007.7mb 80f 82f
8:10am  -   -   -  31 38 mph 1007.8mb 80f 82f
8:00am  -   -   -  31 40 mph 1007.8mb 80f 82f
7:50am 18.5ft 11s 9s 31 40 mph 1007.7mb 80f 82f
7:40am  -   -   -  31 40 mph 1007.7mb 80f 82f
7:30am  -   -   -  31 43 mph 1007.5mb 80f 82f
7:20am  -   -   -  34 43 mph 1007.5mb 80f 82f
7:10am  -   -   -  31 40 mph 1007.6mb 80f 82f
7:00am  -   -   -  31 43 mph 1007.7mb 80f 82f
6:50am 19ft 11s 8s 31 40 mph 1007.8mb 80f 82f
6:40am  -   -   -  31 40 mph 1008mb 80f 82f
6:30am  -   -   -  34 43 mph 1007.9mb 80f 82f
6:20am  -   -   -  34 43 mph 1007.9mb 80f 82f
6:10am  -   -   -  34 43 mph 1007.9mb 80f 82f
6:00am  -   -   -  31 40 mph 1008mb 80f 82f
5:50am 20.5ft 12s 8s 34 40 mph 1008mb 80f 82f
5:40am  -   -   -  34 43 mph 1008.1mb 80f 82f
5:30am  -   -   -  34 45 mph 1007.9mb 80f 82f
5:20am  -   -   -  34 45 mph 1007.9mb 80f 82f
5:10am  -   -   -  34 43 mph 1007.9mb 80f 82f
5:00am  -   -   -  34 47 mph 1008mb 80f 82f
4:50am 19.5ft 11s 8s 34 45 mph 1008mb 80f 82f
4:40am 19.5ft  -  8s 36 49 mph 1007.6mb 80f 82f
4:30am  -   -   -  34 45 mph 1007.5mb 80f 82f
4:20am  -   -   -  34 43 mph 1007.7mb 80f 82f
4:10am  -   -   -  34 43 mph 1007.9mb 80f 82f
4:00am  -   -   -  31 43 mph 1008mb 80f 82f
3:50am 21ft 11s 9s 34 43 mph 1007.9mb 80f 82f
3:40am  -   -   -  31 40 mph 1007.9mb 80f 82f
3:30am  -   -   -  34 47 mph 1008mb 80f 82f
3:20am  -   -   -  34 43 mph 1007.9mb 80f 82f
3:10am  -   -   -  34 45 mph 1008.1mb - 81f
3:00am  -   -   -  34 43 mph 1008mb 80f 81f
2:50am 20ft 12s 9s 31 40 mph 1007.7mb 80f 81f
2:40am 20ft  -  9s 31 40 mph 1008mb 80f 81f
2:30am  -   -   -  31 40 mph 1008.3mb 80f 81f
2:20am  -   -   -  31 40 mph 1008.1mb 80f 81f
2:10am  -   -   -  34 43 mph 1007.8mb 80f 81f
2:00am  -   -   -  31 40 mph 1007.6mb 80f 81f
1:50am 17.5ft 12s 8s 31 45 mph 1007.9mb 80f 81f
1:40am  -   -   -  34 43 mph 1007.8mb 80f 81f
1:30am  -   -   -  34 45 mph 1007.4mb 80f 81f
1:20am  -   -   -  34 43 mph 1007.6mb 80f 81f
1:10am  -   -   -  34 43 mph 1007.4mb 80f 81f
1:00am  -   -   -  36 45 mph 1007.4mb 80f 81f
12:50am 18.5ft 12s 8s 34 45 mph 1007.8mb 80f 81f
12:40am  -   -   -  34 45 mph 1007.9mb 80f 81f
12:30am  -   -   -  36 45 mph 1007.7mb 80f 80f
12:20am  -   -   -  34 43 mph 1008mb 80f 80f
12:10am  -   -   -  31 45 mph 1007.7mb 80f 80f
12:00am  -   -   -  34 45 mph 1008.1mb 80f 81f
Mon 09/25 11:50pm 20.5ft 12s 9s 34 45 mph 1008mb 80f 81f
11:40pm  -   -   -  31 43 mph 1007.9mb 80f 81f
11:30pm  -   -   -  34 43 mph 1007.8mb - 81f
11:20pm  -   -   -  31 43 mph 1007.9mb 80f 81f
11:10pm  -   -   -  31 43 mph 1007.5mb 80f 81f
11:00pm  -   -   -  31 40 mph 1007.7mb 80f 81f
10:50pm 18ft 13s 8s 31 40 mph 1007.7mb 80f 81f
10:40pm 18ft  -  8s 31 40 mph 1007.6mb 80f 81f
10:30pm  -   -   -  31 43 mph 1007.7mb 80f 81f
10:20pm  -   -   -  34 43 mph 1007.6mb 80f 81f
10:10pm  -   -   -  34 45 mph 1007.5mb 80f 81f
10:00pm  -   -   -  34 43 mph 1007.3mb - 81f
9:50pm 19.5ft 13s 9s 31 40 mph 1007.2mb - 81f
9:40pm 19.5ft  -  9s 31 43 mph 1007.2mb 80f 81f
9:30pm  -   -   -  31 38 mph 1007.3mb 80f 81f
9:20pm  -   -   -  31 40 mph 1007.5mb 80f 81f
9:10pm  -   -   -  31 38 mph 1007.5mb 80f 81f
9:00pm  -   -   -  29 38 mph 1007.4mb 80f 81f
8:50pm 20ft 13s 9s 29 38 mph 1007.2mb 80f 81f
8:40pm  -   -   -  29 40 mph 1007.3mb 80f 81f
8:30pm  -   -   -  29 40 mph 1007.4mb 80f 81f
8:20pm  -   -   -  29 38 mph 1007.2mb 80f 81f
8:10pm  -   -   -  29 36 mph 1007mb 80f 81f
8:00pm  -   -   -  29 36 mph 1007mb 80f 81f
7:50pm 21.5ft 12s 9s 27 36 mph 1007.1mb 80f 81f
7:40pm 21.5ft  -  9s 29 34 mph 1007.4mb 80f 81f
7:30pm  -   -   -  29 40 mph 1007.6mb 80f 81f
7:20pm  -   -   -  29 40 mph 1007.7mb 80f 81f
7:10pm  -   -   -  31 40 mph 1007.8mb 80f 82f
7:00pm  -   -   -  34 43 mph 1007.6mb 80f 82f
6:50pm 22.5ft 11s 9s 31 43 mph 1007.4mb 80f 82f
6:40pm  -   -   -  31 40 mph 1007.5mb 80f 82f
6:30pm  -   -   -  31 40 mph 1007.4mb 80f 82f
6:20pm  -   -   -  31 40 mph 1007.8mb 80f 82f
6:10pm  -   -   -  31 40 mph 1007.7mb 80f 82f
6:00pm  -   -   -  31 40 mph 1007.5mb 80f 82f
5:50pm 21.5ft 13s 9s 31 43 mph 1007.7mb 80f 82f
5:40pm  -   -   -  31 43 mph 1007.8mb 80f 82f
5:30pm  -   -   -  31 40 mph 1007.7mb 80f 82f
5:20pm  -   -   -  31 43 mph 1007.9mb 80f 81f
5:10pm  -   -   -  34 45 mph 1008.1mb 80f 82f
5:00pm  -   -   -  29 40 mph 1008mb 80f 82f
4:50pm 20.5ft 14s 9s 31 38 mph 1008mb 80f 82f
4:40pm  -   -   -  31 40 mph 1008.2mb 80f 82f
4:30pm  -   -   -  31 40 mph 1008.4mb 80f 82f
4:20pm  -   -   -  31 43 mph 1008.2mb 80f 82f
4:10pm  -   -   -  31 40 mph 1008.2mb 80f 82f
4:00pm  -   -   -  31 40 mph 1008.3mb 80f 82f
3:50pm 23.5ft 13s 9s 31 40 mph 1008.3mb 80f 82f
3:40pm  -   -   -  29 38 mph 1008.3mb 80f 82f
3:30pm  -   -   -  29 40 mph 1008.2mb 80f 82f
3:20pm  -   -   -  29 38 mph 1008.4mb 80f 82f
3:10pm  -   -   -  31 40 mph 1008.5mb 80f 82f
3:00pm  -   -   -  31 43 mph 1008.7mb 80f 82f
2:50pm 20ft 14s 9s 29 38 mph 1008.7mb 80f 82f
2:40pm  -   -   -  29 38 mph 1008.7mb 80f 82f
2:30pm  -   -   -  27 36 mph 1008.9mb 80f 82f
2:20pm  -   -   -  29 36 mph 1009mb 80f 82f
2:10pm  -   -   -  29 36 mph 1009mb 80f 82f
2:00pm  -   -   -  31 40 mph 1008.9mb 80f 82f
1:50pm 21.5ft 12s 9s 31 43 mph 1008.8mb 80f 82f
1:40pm 21.5ft  -  9s 31 43 mph 1008.7mb 80f 82f
1:30pm  -   -   -  31 40 mph 1008.6mb 80f 82f
1:20pm  -   -   -  31 43 mph 1008.7mb 80f 82f
1:10pm  -   -   -  34 45 mph 1008.6mb 80f 82f
1:00pm  -   -   -  34 45 mph 1008.5mb 80f 82f
12:50pm 20.5ft 14s 9s 34 43 mph 1008.4mb 80f 82f
12:40pm 20.5ft  -  9s 36 45 mph 1008.3mb 80f 82f
12:30pm  -   -   -  36 45 mph 1008.2mb 80f 82f
12:20pm  -   -   -  36 45 mph 1008.2mb 80f 82f
12:10pm  -   -   -  34 45 mph 1008.1mb 80f 82f
12:00pm  -   -   -  31 43 mph 1008mb 80f 82f
11:50am 18.5ft 13s 9s 34 45 mph 1007.9mb 80f 82f
11:40am 18.5ft  -  9s 34 45 mph 1007.8mb 80f 82f
11:30am  -   -   -  34 43 mph 1007.9mb 80f 82f
11:20am  -   -   -  31 40 mph 1007.9mb 80f 82f
11:10am  -   -   -  31 40 mph 1007.9mb 80f 82f
11:00am  -   -   -  31 40 mph 1007.7mb 80f 82f
10:50am 18ft 14s 9s 29 38 mph 1007.9mb 80f 82f
10:40am  -   -   -  31 40 mph 1008.1mb 80f 82f
10:30am  -   -   -  31 40 mph 1008.1mb 80f 82f
10:20am  -   -   -  31 40 mph 1008mb 80f 82f
10:10am  -   -   -  31 38 mph 1008mb 80f 82f
10:00am  -   -   -  31 38 mph 1007.9mb - 82f
9:50am 20ft 14s 9s 31 40 mph 1007.8mb 80f 82f
9:40am  -   -   -  34 40 mph 1007.9mb 80f 82f
9:30am  -   -   -  34 43 mph 1007.8mb 80f 82f
9:20am  -   -   -  31 45 mph 1007.8mb 80f 82f
9:10am  -   -   -  31 40 mph 1007.8mb 80f 82f
9:00am  -   -   -  31 40 mph 1007.7mb 80f 82f
8:50am 20.5ft 14s 9s 31 45 mph 1007.6mb 80f 82f
8:40am 20.5ft  -  9s 31 40 mph 1007.7mb 80f 82f
8:30am  -   -   -  34 40 mph 1007.6mb - 82f
8:20am  -   -   -  34 45 mph 1007.5mb 80f 82f
8:10am  -   -   -  31 45 mph 1007.6mb 80f 81f
8:00am  -   -   -  31 38 mph 1007.6mb 80f 81f
7:50am 19.5ft 11s 9s 31 38 mph 1007.6mb 80f 81f
7:40am  -   -   -  34 40 mph 1007.7mb 80f 82f
7:30am  -   -   -  31 40 mph 1007.6mb - 82f
7:20am  -   -   -  31 40 mph 1007.8mb 80f 82f
7:10am  -   -   -  34 40 mph 1007.7mb 80f 82f
7:00am  -   -   -  31 40 mph 1008mb 80f 82f
6:50am 20.5ft 13s 10s 34 43 mph 1007.9mb 80f 82f
6:40am  -   -   -  29 40 mph 1007.7mb 80f 81f
6:30am  -   -   -  31 43 mph 1008mb 80f 81f
6:20am  -   -   -  31 40 mph 1007.9mb 80f 82f
6:10am  -   -   -  31 40 mph 1008mb - 82f
6:00am  -   -   -  31 43 mph 1008mb 80f 82f
5:50am 20.5ft 14s 9s 31 40 mph 1008.1mb 80f 82f
5:40am  -   -   -  31 40 mph 1008.1mb 80f 82f
5:30am  -   -   -  31 38 mph 1008.2mb 80f 82f
5:20am  -   -   -  31 40 mph 1008.2mb 80f 82f
5:10am  -   -   -  34 40 mph 1008.2mb 80f 82f
5:00am  -   -   -  31 40 mph 1008.2mb - 82f
4:50am 20.5ft 13s 9s 34 40 mph 1008.3mb - 82f
4:40am  -   -   -  31 40 mph 1008.4mb 80f 82f
4:30am  -   -   -  34 43 mph 1008.6mb 80f 82f
4:20am  -   -   -  31 43 mph 1008.5mb 80f 82f
4:10am  -   -   -  34 43 mph 1008.5mb 80f 82f
4:00am  -   -   -  31 40 mph 1008.6mb 80f 82f
3:50am 22ft 12s 10s 34 43 mph 1008.4mb 80f 82f
3:40am  -   -   -  34 40 mph 1008.5mb 80f 82f
3:30am  -   -   -  31 40 mph 1008.4mb 80f 82f
3:20am  -   -   -  31 40 mph 1008.6mb 80f 82f
3:10am  -   -   -  34 43 mph 1008.7mb 80f 82f
3:00am  -   -   -  31 40 mph 1008.8mb 80f 82f
2:50am 20.5ft 14s 9s 31 40 mph 1008.9mb 80f 82f
2:40am 20.5ft  -  9s 31 38 mph 1009mb 80f 82f
2:30am  -   -   -  29 38 mph 1009.3mb 80f 82f
2:20am  -   -   -  29 38 mph 1009.3mb 80f 82f
2:10am  -   -   -  31 40 mph 1009.3mb 80f 82f
2:00am  -   -   -  34 40 mph 1009.4mb 80f 82f
1:50am 19ft 12s 9s 31 40 mph 1009.4mb 80f 82f
1:40am  -   -   -  29 40 mph 1009.3mb 80f 82f
1:30am  -   -   -  29 38 mph 1009.2mb 80f 82f
1:20am  -   -   -  29 40 mph 1009.2mb 80f 82f
1:10am  -   -   -  29 38 mph 1009.3mb 80f 82f
1:00am  -   -   -  29 38 mph 1009.2mb 80f -
12:50am 19.5ft 13s 9s 29 36 mph 1009.2mb 80f 82f
12:40am  -   -   -  29 40 mph 1009.2mb 80f 82f
12:30am  -   -   -  29 38 mph 1009.3mb 80f 81f
12:20am  -   -   -  27 36 mph 1009.3mb 80f 81f
12:10am  -   -   -  29 36 mph 1009.4mb 80f 81f
12:00am  -   -   -  29 38 mph 1009.3mb 80f 81f
Sun 09/24 11:50pm 18.5ft 14s 9s 29 36 mph 1009.2mb 80f 81f
11:40pm 18.5ft  -  9s 29 38 mph 1009.2mb 80f 81f
11:30pm  -   -   -  29 38 mph 1009.2mb 80f 81f
11:20pm  -   -   -  29 36 mph 1009.2mb 80f 81f
11:10pm  -   -   -  29 36 mph 1009.1mb 80f 81f
11:00pm  -   -   -  27 36 mph 1009.1mb 80f 81f
10:50pm 20ft 14s 9s 27 36 mph 1009.1mb 80f 81f
10:40pm 20ft  -  9s 29 36 mph 1009.2mb 80f 81f
10:30pm  -   -   -  27 36 mph 1009.3mb 80f 81f
10:20pm  -   -   -  27 38 mph 1009.3mb 80f 81f
10:10pm  -   -   -  27 34 mph 1009.4mb 80f 81f
10:00pm  -   -   -  27 36 mph 1009.4mb 80f 81f
9:50pm 17.5ft 13s 9s 25 31 mph 1009.4mb 80f 81f
9:40pm  -   -   -  27 34 mph 1009.4mb 80f 81f
9:30pm  -   -   -  25 31 mph 1009.6mb 80f 81f
9:20pm  -   -   -  25 31 mph 1009.6mb 80f 81f
9:10pm  -   -   -  25 34 mph 1009.8mb 80f 81f
9:00pm  -   -   -  25 31 mph 1009.8mb 80f 81f
8:50pm 16ft 14s 9s 25 31 mph 1010mb 80f 81f
8:40pm  -   -   -  25 31 mph 1010mb 80f 81f
8:30pm  -   -   -  25 34 mph 1010.1mb 80f 81f
8:20pm  -   -   -  25 31 mph 1009.9mb 80f 82f
8:10pm  -   -   -  27 31 mph 1010mb 80f 82f
8:00pm  -   -   -  27 34 mph 1010mb 80f 82f
7:50pm 17.5ft 13s 9s 27 34 mph 1010mb 80f 82f
7:40pm  -   -   -  25 34 mph 1010.2mb 80f 81f
7:30pm  -   -   -  25 29 mph 1010.1mb 80f 81f
7:20pm  -   -   -  25 31 mph 1010.3mb 80f 81f
7:10pm  -   -   -  25 29 mph 1010.6mb 80f 81f
7:00pm  -   -   -  25 31 mph 1010.7mb 80f 81f
6:50pm 16.5ft  -  9s 25 34 mph 1010.9mb 80f 81f
6:40pm  -   -   -  25 31 mph 1010.8mb 80f 81f
6:30pm  -   -   -  25 31 mph 1010.9mb 80f 81f
6:20pm  -   -   -  25 31 mph 1010.8mb 80f 81f
6:10pm  -   -   -  25 31 mph 1010.8mb 80f 81f
6:00pm  -   -   -  22 29 mph 1011.1mb 80f 81f
5:50pm 16ft 14s 9s 22 27 mph 1011.2mb 80f 81f
5:40pm  -   -   -  22 29 mph 1011.4mb 80f 81f
5:30pm  -   -   -  22 29 mph 1011.6mb 80f 81f
5:20pm  -   -   -  22 29 mph 1011.8mb 80f 81f
5:10pm  -   -   -  22 29 mph 1011.9mb 80f 81f
5:00pm  -   -   -  25 29 mph 1012mb 80f 81f
4:50pm  -   -   -  22 29 mph 1012.1mb 80f 81f
4:40pm  -   -   -  22 29 mph 1012.1mb 80f 81f
4:30pm  -   -   -   -  mph 1012mb 80f -
4:20pm  -   -   -  22 29 mph 1012.2mb 80f -
4:10pm  -   -   -  22 29 mph 1012.3mb 80f 81f
4:00pm  -   -   -  25 29 mph 1012.4mb - 81f
3:50pm 14ft 11s 8s 25 29 mph 1012.5mb 80f 81f
3:40pm 14ft  -  8s 22 29 mph 1012.5mb 80f 81f
3:30pm  -   -   -  22 29 mph 1012.5mb 80f 81f
3:20pm  -   -   -  22 27 mph 1012.6mb 80f 81f
3:10pm  -   -   -  22 31 mph 1012.7mb 80f 81f
3:00pm  -   -   -  22 29 mph 1012.8mb 80f 81f
2:50pm 14ft 10s 9s 22 27 mph 1012.8mb 80f 81f
2:40pm 14ft  -  9s 22 29 mph 1012.7mb 80f 81f
2:30pm  -   -   -  22 29 mph 1012.8mb 80f 81f
2:20pm  -   -   -  22 29 mph 1012.7mb 80f 81f
2:10pm  -   -   -  22 29 mph 1012.6mb 80f 81f
2:00pm  -   -   -  25 29 mph 1012.6mb 80f 81f
1:50pm 15ft 13s 9s 22 29 mph 1012.5mb 80f 81f
1:40pm  -   -   -  22 27 mph 1012.6mb 80f 81f
1:30pm  -   -   -  22 31 mph 1012.8mb 80f 81f
1:20pm  -   -   -  22 31 mph 1012.8mb - 81f
1:10pm  -   -   -  25 29 mph 1012.9mb 80f 81f
1:00pm  -   -   -  25 31 mph 1012.8mb - 81f
12:50pm 14ft 12s 9s 22 31 mph 1012.8mb - 81f
12:40pm 14ft  -  9s 22 29 mph 1012.7mb 80f 81f
12:30pm  -   -   -  20 27 mph 1012.8mb 80f 81f
12:20pm  -   -   -  20 27 mph 1012.9mb 80f 81f
12:10pm  -   -   -  20 27 mph 1012.9mb 80f 81f
12:00pm  -   -   -  20 27 mph 1012.9mb 80f 81f
11:50am 12ft 11s 8s 20 25 mph 1012.9mb 80f 81f
11:40am  -   -   -  20 25 mph 1013mb 80f 81f
11:30am  -   -   -  20 27 mph 1012.8mb 80f 81f
11:20am  -   -   -  20 27 mph 1012.8mb 80f 81f
11:10am  -   -   -  20 25 mph 1012.7mb 80f 81f
11:00am  -   -   -  20 25 mph 1012.6mb 80f 81f
10:50am 13.5ft 11s 9s 20 25 mph 1012.5mb 80f 81f
10:40am 13.5ft  -  9s 20 27 mph 1012.4mb 80f 81f
10:30am  -   -   -  20 25 mph 1012.1mb 80f 81f
10:20am  -   -   -  18 22 mph 1012.1mb 80f 81f
10:10am  -   -   -  18 22 mph 1012.2mb 80f 81f
10:00am  -   -   -  18 25 mph 1012.3mb 80f 81f
9:50am 13ft 11s 9s 20 25 mph 1012.4mb 80f 81f
9:40am  -   -   -  18 22 mph 1012.5mb 80f 81f
9:30am  -   -   -  18 22 mph 1012.4mb 80f 81f
9:20am  -   -   -  18 22 mph 1012.5mb 80f 81f
9:10am  -   -   -  18 22 mph 1012.4mb - 81f
9:00am  -   -   -  18 25 mph 1012.4mb 80f 81f
8:50am 11ft 11s 8s 18 22 mph 1012.4mb 80f 81f
8:40am 11ft  -  8s 18 22 mph 1012.4mb 80f 81f
8:30am  -   -   -  18 22 mph 1012.4mb 80f 81f
8:20am  -   -   -  18 22 mph 1012.4mb - 81f
8:10am  -   -   -  18 22 mph 1012.4mb 80f 81f
8:00am  -   -   -  18 22 mph 1012.4mb 80f 81f
7:50am 11ft 11s 8s 18 22 mph 1012.4mb 80f 81f
7:40am  -   -   -  18 22 mph 1012.4mb 80f 81f
7:30am  -   -   -  18 22 mph 1012.4mb 80f 81f
7:20am  -   -   -  18 22 mph 1012.3mb - 81f
7:10am  -   -   -  18 22 mph 1012.6mb 80f 81f
7:00am  -   -   -  18 22 mph 1012.6mb 80f 81f
6:50am 12ft 10s 8s 18 22 mph 1012.7mb 80f 81f
6:40am 12ft  -  8s 18 20 mph 1012.8mb 80f 81f
6:30am  -   -   -  18 20 mph 1012.8mb 80f 81f
6:20am  -   -   -  16 22 mph 1012.8mb 80f 81f
6:10am  -   -   -  18 22 mph 1012.8mb 80f 81f
6:00am  -   -   -  16 20 mph 1013mb - 81f
5:50am 11.5ft 11s 8s 16 20 mph 1013.1mb 80f 81f
5:40am 11.5ft  -  8s 16 20 mph 1013mb 80f 81f
5:30am  -   -   -  18 20 mph 1013.2mb 80f 81f
5:20am  -   -   -  16 20 mph 1013.4mb 80f 81f
5:10am  -   -   -  16 20 mph 1013.6mb 80f 81f
5:00am  -   -   -  16 20 mph 1013.7mb 80f 81f
4:50am 12ft 12s 9s 16 20 mph 1013.8mb 80f 81f
4:40am 12ft  -  9s 16 20 mph 1014mb 80f 81f
4:30am  -   -   -  16 20 mph 1014mb 80f 81f
4:20am  -   -   -  16 20 mph 1014mb 80f 81f
4:10am  -   -   -  16 20 mph 1014.2mb 80f 81f
4:00am  -   -   -  16 20 mph 1014.3mb 80f 81f
3:50am 10.5ft 11s 8s 16 20 mph 1014.4mb 80f 81f
3:40am 10.5ft  -  8s 16 20 mph 1014.5mb 80f 81f
3:30am  -   -   -  16 20 mph 1014.4mb 80f 81f
3:20am  -   -   -  16 20 mph 1014.3mb 80f 81f
3:10am  -   -   -  16 20 mph 1014.4mb 80f 81f
3:00am  -   -   -  16 18 mph 1014.3mb 80f 81f
2:50am 11ft 11s 9s 13 18 mph 1014.3mb 80f 81f
2:40am  -   -   -  16 20 mph 1014.4mb 80f 81f
2:30am  -   -   -  16 18 mph 1014.5mb 80f 81f
2:20am  -   -   -  13 18 mph 1014.6mb 80f 81f
2:10am  -   -   -  13 18 mph 1014.8mb 80f 81f
2:00am  -   -   -  13 18 mph 1014.8mb 80f 81f
1:50am 11ft 11s 9s 13 16 mph 1014.8mb - 81f
1:40am 11ft  -  9s 13 18 mph 1014.8mb 80f 81f
1:30am  -   -   -  13 18 mph 1014.8mb 80f 81f
1:20am  -   -   -  16 18 mph 1014.7mb 80f 81f
1:10am  -   -   -  16 18 mph 1014.7mb - 81f
1:00am  -   -   -  13 18 mph 1014.5mb 80f 81f
12:50am 11.5ft 11s 9s 16 18 mph 1014.5mb 80f 81f
12:40am 11.5ft  -  9s 16 18 mph 1014.5mb 80f 81f
12:30am  -   -   -  16 20 mph 1014.3mb 80f 81f
12:20am  -   -   -  13 18 mph 1014.4mb - 81f
12:10am  -   -   -  16 20 mph 1014.3mb 80f 81f
12:00am  -   -   -  16 18 mph 1014.4mb 81f 81f
Sat 09/23 11:50pm 11.5ft 13s 9s 13 18 mph 1014.4mb 81f 81f
11:40pm  -   -   -  13 18 mph 1014.3mb 81f 81f
11:30pm  -   -   -  13 18 mph 1014.2mb 81f 81f
11:20pm  -   -   -  13 18 mph 1014.2mb 81f 81f
11:10pm  -   -   -  13 18 mph 1014.2mb 81f 81f
11:00pm  -   -   -  13 18 mph 1014.3mb 81f 81f
10:50pm 11ft 11s 9s 13 18 mph 1014.3mb 81f 81f
10:40pm  -   -   -  13 18 mph 1014.4mb 81f 81f
10:30pm  -   -   -  13 18 mph 1014.3mb 81f 81f
10:20pm  -   -   -  13 18 mph 1014.4mb 81f 81f
10:10pm  -   -   -  13 18 mph 1014.4mb 81f 81f
10:00pm  -   -   -  13 18 mph 1014.4mb 81f 81f
9:50pm 11.5ft 12s 9s 13 18 mph 1014.7mb 81f 81f
9:40pm  -   -   -  13 16 mph 1014.6mb 81f 81f
9:30pm  -   -   -  13 16 mph 1014.6mb 81f 81f
9:20pm  -   -   -  13 18 mph 1014.6mb 81f 81f
9:10pm  -   -   -  13 18 mph 1014.5mb 81f 81f
9:00pm  -   -   -  13 18 mph 1014.4mb 81f 81f
8:50pm 12ft 11s 9s 13 18 mph 1014.4mb 81f 81f
8:40pm  -   -   -  13 18 mph 1014.4mb 81f 81f
8:30pm  -   -   -  13 18 mph 1014.4mb 81f 81f
8:20pm  -   -   -  13 18 mph 1014.4mb 81f 81f
8:10pm  -   -   -  13 16 mph 1014.4mb 81f 81f
8:00pm  -   -   -  13 16 mph 1014.6mb 81f 81f
7:50pm 11ft 14s 9s 13 16 mph 1014.6mb 81f 81f
7:40pm 11ft  -  9s 13 16 mph 1014.5mb 81f 81f
7:30pm  -   -   -  13 16 mph 1014.5mb 81f 81f
7:20pm  -   -   -  13 18 mph 1014.4mb 81f 81f
7:10pm  -   -   -  13 18 mph 1014.4mb 81f 81f
7:00pm  -   -   -  13 16 mph 1014.6mb 81f 81f
6:50pm 12ft 14s 9s 13 16 mph 1014.6mb 81f 81f
6:40pm 12ft  -  9s 11 16 mph 1014.8mb 81f 81f
6:30pm  -   -   -  11 16 mph 1014.8mb 81f 81f
6:20pm  -   -   -  11 16 mph 1015mb 81f 81f
6:10pm  -   -   -  11 16 mph 1015.1mb 81f 81f
6:00pm  -   -   -  11 16 mph 1015.2mb 81f 81f
5:50pm 11ft 12s 9s 11 16 mph 1015.3mb 81f 81f
5:40pm  -   -   -  11 13 mph 1015.2mb 81f 81f
5:30pm  -   -   -  11 16 mph 1015.3mb 81f 81f
5:20pm  -   -   -  13 16 mph 1015.3mb 81f 81f
5:10pm  -   -   -  11 16 mph 1015.4mb 81f 81f
5:00pm  -   -   -  11 16 mph 1015.5mb 81f 81f
4:50pm 11ft 11s 9s 11 16 mph 1015.6mb 81f 81f
4:40pm 11ft  -  9s 11 16 mph 1015.6mb 81f 81f
4:30pm  -   -   -  11 16 mph 1015.7mb 81f 81f
4:20pm  -   -   -  11 18 mph 1015.8mb 81f 81f
4:10pm  -   -   -  11 16 mph 1015.7mb 81f 81f
4:00pm  -   -   -  11 16 mph 1015.7mb 81f 81f
3:50pm 11ft 10s 9s 11 16 mph 1015.6mb 81f 81f
3:40pm  -   -   -  11 16 mph 1015.7mb 81f 81f
3:30pm  -   -   -  11 16 mph 1015.9mb 81f 81f
3:20pm  -   -   -  11 16 mph 1016mb 81f 81f
3:10pm  -   -   -  11 16 mph 1016mb 81f 81f
3:00pm  -   -   -  11 16 mph 1016.1mb 81f 81f
2:50pm 12ft 11s 9s 11 16 mph 1015.9mb 81f 81f
2:40pm  -   -   -  11 13 mph 1016mb 81f 81f
2:30pm  -   -   -  11 13 mph 1016.1mb 81f 80f
2:20pm  -   -   -  11 13 mph 1016.1mb 81f 80f
2:10pm  -   -   -  11 13 mph 1016.2mb 81f 80f
2:00pm  -   -   -  11 13 mph 1016.2mb 81f 80f
1:50pm 12.5ft 11s 10s 11 13 mph 1016.2mb 81f 80f
1:40pm  -   -   -  11 13 mph 1016.2mb 81f 80f
1:30pm  -   -   -  11 13 mph 1016.1mb 81f 80f
1:20pm  -   -   -  9 13 mph 1016.1mb 81f 80f
1:10pm  -   -   -  11 13 mph 1016mb - 80f
1:00pm  -   -   -  11 16 mph 1015.9mb 81f -
12:50pm 12ft 11s 10s 11 16 mph 1015.8mb 81f 80f
12:40pm  -   -   -  9 13 mph 1015.8mb 81f 80f
12:30pm  -   -   -  9 13 mph 1015.8mb 81f 80f
12:20pm  -   -   -  9 13 mph 1015.7mb 81f 80f
12:10pm  -   -   -  9 13 mph 1015.7mb 81f 80f
12:00pm  -   -   -  9 11 mph 1015.7mb 81f 80f
11:50am 11ft 13s 10s 9 11 mph 1015.6mb 81f 80f
11:40am  -   -   -  9 13 mph 1015.6mb 81f 80f
11:30am  -   -   -  9 11 mph 1015.6mb 81f 80f
11:20am  -   -   -  9 11 mph 1015.5mb 80f 80f
11:10am  -   -   -  9 11 mph 1015.2mb 80f 80f
11:00am  -   -   -  9 11 mph 1015.2mb 80f 80f
10:50am 11ft 12s 10s 9 11 mph 1015.2mb 80f 80f
10:40am  -   -   -  9 11 mph 1015.1mb 80f 80f
10:30am  -   -   -  9 11 mph 1015.2mb 81f 80f
10:20am  -   -   -  9 11 mph 1015mb 81f 80f
10:10am  -   -   -  9 13 mph 1014.9mb 81f 80f
10:00am  -   -   -  9 13 mph 1014.9mb 81f 80f
9:50am 10.5ft 11s 10s 9 13 mph 1014.7mb 81f 80f
9:40am  -   -   -  11 13 mph 1014.5mb 81f 80f
9:30am  -   -   -  11 13 mph 1014.5mb 81f 80f
9:20am  -   -   -  11 13 mph 1014.6mb 81f 80f
9:10am  -   -   -  11 13 mph 1014.7mb 81f 80f
9:00am  -   -   -  9 13 mph 1014.7mb 81f 80f
8:50am 10ft 11s 10s 9 13 mph 1014.6mb 81f 80f
8:40am  -   -   -  9 11 mph 1014.7mb 81f 80f
8:30am  -   -   -  9 13 mph 1014.7mb 81f 80f
8:20am  -   -   -  9 11 mph 1014.7mb 81f 80f
8:10am  -   -   -  9 11 mph 1014.7mb 81f 80f
8:00am  -   -   -  9 11 mph 1014.7mb 81f 80f
7:50am 10.5ft 12s 10s 9 11 mph 1014.7mb 81f 80f
7:40am  -   -   -  9 11 mph 1014.7mb 81f 80f
7:30am  -   -   -  9 11 mph 1014.8mb - 80f
7:20am  -   -   -  9 11 mph 1014.8mb 81f 80f
7:10am  -   -   -  9 11 mph 1014.8mb - 80f
7:00am  -   -   -  9 11 mph 1014.7mb 81f 80f
6:50am 10ft 11s 10s 9 11 mph 1014.8mb 81f 80f
6:40am 10ft  -  10s 9 11 mph 1015mb 81f 80f
6:30am  -   -   -  9 13 mph 1015.2mb 81f 80f
6:20am  -   -   -  9 11 mph 1015.2mb 81f 80f
6:10am  -   -   -  9 13 mph 1015.3mb 81f 80f
6:00am  -   -   -  9 11 mph 1015.5mb 81f 80f
5:50am 10.5ft 12s 10s 9 11 mph 1015.4mb 81f 80f
5:40am 10.5ft  -  10s 9 11 mph 1015.4mb 81f 80f
5:30am  -   -   -  9 11 mph 1015.3mb 81f 80f
5:20am  -   -   -  9 11 mph 1015.3mb 81f 80f
5:10am  -   -   -  9 11 mph 1015.5mb 81f 80f
5:00am  -   -   -  9 11 mph 1015.6mb 81f 80f
4:50am 10.5ft 11s 10s 9 11 mph 1015.7mb 81f 80f
4:40am  -   -   -  9 11 mph 1015.8mb 81f 80f
4:30am  -   -   -  7 11 mph 1015.8mb 81f 80f
4:20am  -   -   -  9 11 mph 1015.7mb 81f 80f
4:10am  -   -   -  9 11 mph 1015.8mb 81f 80f
4:00am  -   -   -  9 11 mph 1015.9mb 81f 80f
3:50am 10.5ft 11s 10s 9 11 mph 1015.9mb 81f 80f
3:40am  -   -   -  9 11 mph 1015.9mb 81f 80f
3:30am  -   -   -  7 11 mph 1016mb 81f 80f
3:20am  -   -   -  7 11 mph 1016mb 81f 80f
3:10am  -   -   -  7 11 mph 1015.9mb 81f 80f
3:00am  -   -   -  7 11 mph 1015.9mb 81f 80f
2:50am 10ft 10s 10s 7 9 mph 1015.9mb 81f 80f
2:40am  -   -   -  7 11 mph 1015.9mb 81f 80f
2:30am  -   -   -  7 9 mph 1015.8mb 81f 80f
2:20am  -   -   -  7 9 mph 1015.9mb - 80f
2:10am  -   -   -  7 9 mph 1016mb 81f 80f
2:00am  -   -   -  7 9 mph 1016mb 81f 80f
1:50am 11ft 12s 10s 7 9 mph 1016mb 81f 80f
1:40am  -   -   -  7 9 mph 1015.8mb 81f 80f
1:30am  -   -   -  7 11 mph 1015.7mb 81f 80f
1:20am  -   -   -  7 11 mph 1015.8mb 81f 80f
1:10am  -   -   -  7 11 mph 1015.9mb - 80f
1:00am  -   -   -  7 11 mph 1015.7mb 81f 80f
12:50am 10ft 12s 10s 7 11 mph 1015.6mb 81f 80f
12:40am 10ft  -  10s 9 11 mph 1015.6mb 81f 80f
12:30am  -   -   -  9 11 mph 1015.5mb 81f 80f
12:20am  -   -   -  9 11 mph 1015.9mb - 80f
12:10am  -   -   -  7 9 mph 1015.4mb 81f 80f
12:00am  -   -   -  7 11 mph 1015.3mb 81f 80f
Fri 09/22 11:50pm 11ft 12s 10s 7 9 mph 1015.3mb - 80f
11:40pm 11ft  -  10s 7 9 mph 1015.3mb 81f 80f
11:20pm  -   -   -  7 9 mph 1015.4mb 81f 80f
11:10pm  -   -   -  7 9 mph 1015.3mb 81f 80f
11:00pm  -   -   -  7 9 mph 1015.3mb 81f 80f
10:50pm 10ft 12s 9s 7 9 mph 1015.3mb 82f 80f
10:40pm  -   -   -  7 9 mph 1015.4mb 82f 80f
10:30pm  -   -   -  7 9 mph 1015.4mb 82f 80f
10:20pm  -   -   -  7 9 mph 1015.4mb 82f 80f
10:10pm  -   -   -  7 9 mph 1015.3mb 81f 80f
10:00pm  -   -   -  4 9 mph 1015.3mb 81f 80f
9:50pm 12ft 11s 10s 4 9 mph 1015.3mb 81f 80f
9:40pm 12ft  -  10s 4 11 mph 1015.4mb 81f 80f
9:30pm  -   -   -  7 9 mph 1015.4mb 82f 80f
9:20pm  -   -   -  7 9 mph 1015.5mb 80f 80f
9:10pm  -   -   -  4 7 mph 1015.6mb 80f 80f
9:00pm  -   -   -  4 7 mph 1015.7mb 80f 80f
8:50pm 11ft 13s 10s 4 9 mph 1015.7mb 80f 80f
8:40pm  -   -   -  4 9 mph 1015.6mb 81f 80f
8:30pm  -   -   -  4 9 mph 1015.7mb 81f 80f
8:20pm  -   -   -  4 9 mph 1015.7mb 80f 80f
8:10pm  -   -   -  4 9 mph 1015.8mb 80f 80f
8:00pm  -   -   -  7 11 mph 1015.7mb 80f 80f
7:50pm 11.5ft  -  9s 4 9 mph 1015.9mb 80f -
7:40pm  -   -   -  4 9 mph 1015.9mb 80f 80f
7:30pm  -   -   -  4 11 mph 1015.9mb 80f 79f
7:20pm  -   -   -  4 11 mph 1016mb 80f 79f
7:10pm  -   -   -  4 9 mph 1016mb 80f 80f
7:00pm  -   -   -  4 11 mph 1016.1mb 80f 79f
6:50pm 12ft 11s 9s 4 9 mph 1016mb 80f 79f
6:40pm  -   -   -  4 11 mph 1016.3mb 80f 79f
6:30pm  -   -   -  4 9 mph 1016.3mb 80f 79f
6:20pm  -   -   -  2 7 mph 1016.4mb 80f 79f
6:10pm  -   -   -  2 7 mph 1016.4mb 80f 79f
6:00pm  -   -   -  2 4 mph 1016.5mb 80f 80f
5:50pm 11ft 11s 9s 2 7 mph 1016.6mb 80f 79f
5:40pm  -   -   -  2 7 mph 1016.6mb 80f 79f
5:30pm  -   -   -  2 4 mph 1016.8mb 80f 79f
5:20pm  -   -   -  2 4 mph 1016.9mb 80f 79f
5:10pm  -   -   -  2 4 mph 1016.9mb 80f 79f
5:00pm  -   -   -  2 4 mph 1017mb 80f 79f
4:50pm 10ft 11s 9s  -  4 mph 1017mb 80f 79f